Location: Bremen
(53.0793°N, 8.8017°E)
Time: 01:23:27
(UTC+01:00)

Altair - All Passes

Search period start: 28 November 2021 00:00
Search period end: 08 December 2021 00:00
Orbit: 1502 x 1682 km, 47.2° (Epoch: 27 November)

Date Brightness Start Highest point End Pass type
(mag) Time Alt. Az. Time Alt. Az. Time Alt. Az.
28 Nov - 01:33:34 10° WSW 01:37:15 13° SW 01:40:58 10° SSW night (unlit)
28 Nov - 16:51:12 10° SSW 16:58:54 30° SE 17:06:28 10° E visible
28 Nov - 18:53:15 10° WSW 19:02:13 55° SSE 19:11:03 10° E visible
28 Nov - 20:57:08 10° W 21:06:09 60° S 21:15:06 10° ESE visible
28 Nov - 23:01:31 10° W 23:09:44 39° SSW 23:18:01 10° SSE visible
29 Nov - 01:07:53 10° W 01:12:17 14° SW 01:16:43 10° SSW night (unlit)
29 Nov - 16:26:20 10° SSW 16:33:52 28° SE 16:41:15 10° E daylight
29 Nov - 18:28:09 10° SW 18:37:07 53° SSE 18:45:55 10° E visible
29 Nov - 20:31:59 10° W 20:41:02 61° S 20:50:00 10° ESE visible
29 Nov - 22:36:20 10° W 22:44:41 41° SSW 22:53:02 10° SE visible
30 Nov - 00:42:20 10° W 00:47:18 16° SW 00:52:19 10° SSW night (unlit)
30 Nov - 16:01:30 10° S 16:08:50 26° SE 16:16:00 10° E daylight
30 Nov - 18:03:04 10° SW 18:12:01 52° SSE 18:20:47 10° E visible
30 Nov - 20:06:50 10° W 20:15:55 61° S 20:24:53 10° ESE visible
30 Nov - 22:11:10 10° W 22:19:37 43° SSW 22:28:04 10° SE visible
01 Dec - 00:16:52 10° W 00:22:19 18° SW 00:27:48 10° SSW night (unlit)
01 Dec - 15:36:43 10° S 15:43:48 25° SE 15:50:45 10° E daylight
01 Dec - 17:38:00 10° SW 17:46:55 50° SSE 17:55:38 10° E visible
01 Dec - 19:41:41 10° W 19:50:47 62° S 19:59:46 10° ESE visible
01 Dec - 21:46:00 10° W 21:54:32 45° SSW 22:03:04 10° SE visible
01 Dec - 23:51:28 10° W 23:57:20 19° SW 00:03:13 10° S visible
02 Dec - 15:11:56 10° S 15:18:47 23° SE 15:25:29 10° E daylight
02 Dec - 17:12:56 10° SW 17:21:49 48° SSE 17:30:30 10° E visible
02 Dec - 19:16:32 10° WSW 19:25:40 62° S 19:34:39 10° ESE visible
02 Dec - 21:20:50 10° W 21:29:28 47° SSW 21:38:03 10° SE visible
02 Dec - 23:26:06 10° W 23:32:20 21° SW 23:38:36 10° S visible
03 Dec - 14:47:13 10° S 14:53:46 21° SE 15:00:11 10° E daylight
03 Dec - 16:47:52 10° SW 16:56:43 47° SSE 17:05:21 10° E visible
03 Dec - 18:51:23 10° WSW 19:00:33 62° S 19:09:32 10° ESE visible
03 Dec - 20:55:40 10° W 21:04:22 48° SSW 21:13:01 10° SE visible
03 Dec - 23:00:47 10° W 23:07:20 22° SW 23:13:54 10° S visible
04 Dec - 14:22:33 10° S 14:28:45 20° SE 14:34:51 10° E daylight
04 Dec - 16:22:49 10° SW 16:31:38 45° SSE 16:40:13 10° E daylight
04 Dec - 18:26:15 10° WSW 18:35:25 62° S 18:44:24 10° E visible
04 Dec - 20:30:30 10° W 20:39:17 50° SSW 20:47:59 10° SE visible
04 Dec - 22:35:29 10° W 22:42:20 24° SW 22:49:10 10° S visible
05 Dec - 13:57:55 10° S 14:03:45 18° SE 14:09:28 10° E daylight
05 Dec - 15:57:47 10° SW 16:06:33 43° SSE 16:15:04 10° E daylight
05 Dec - 18:01:06 10° WSW 18:10:18 62° S 18:19:17 10° E visible
05 Dec - 20:05:20 10° W 20:14:12 52° SSW 20:22:56 10° SE visible
05 Dec - 22:10:12 10° W 22:17:19 26° SW 22:24:24 10° S visible
06 Dec - 13:33:22 10° SSE 13:38:45 17° SE 13:44:02 10° E daylight
06 Dec - 15:32:46 10° SW 15:41:28 41° SSE 15:49:54 10° E daylight
06 Dec - 17:35:57 10° WSW 17:45:10 61° S 17:54:10 10° E visible
06 Dec - 19:40:10 10° W 19:49:06 53° SSW 19:57:53 10° SE visible
06 Dec - 21:44:57 10° W 21:52:17 28° SW 21:59:36 10° SSE visible
07 Dec - 13:08:54 10° SSE 13:13:45 15° SE 13:18:31 10° E daylight
07 Dec - 15:07:45 10° SSW 15:16:23 39° SSE 15:24:45 10° E daylight
07 Dec - 17:10:48 10° WSW 17:20:03 60° S 17:29:02 10° E visible
07 Dec - 19:15:00 10° W 19:23:59 55° SSW 19:32:49 10° ESE visible
07 Dec - 21:19:42 10° W 21:27:16 30° SW 21:34:46 10° SSE visible
